Regional Weather Roundup
Issued by NWS Midland/Odessa, TX

Home | Current Version | Previous Version | Text Only | Print | Product List | Glossary On
Versions: 1 2 3 4 5 6 7 8 9 10 11 12 13 14 15 16 17 18 19 20 21 22 23 24 25 26 27 28 29 30 31 32 33 34 35 36 37 38 39 40 41 42 43 44 45 46 47 48 49 50
000
ASUS44 KMAF 021910
RWRMAF
MIDLAND AREA WEATHER ROUNDUP
NATIONAL WEATHER SERVICE MIDLAND TX
100 PM CST MON MAR 02 2015

...IN SOUTHWEST TEXAS AND SOUTHEAST NEW MEXICO...

CITY           SKY/WX    TMP DP  RH WIND       PRES   REMARKS
ALPINE         SUNNY     54  38  55 N5        30.19F
ANDREWS        FOG       32  32 100 SE8       30.23F VSB 1/2 WCI  25
ARTESIA        CLOUDY    36  36 100 S13       30.19F WCI  27
BIG SPRING     CLOUDY    33  32  94 E6        30.28F WCI  28
CARLSBAD       CLOUDY    37  33  85 SE10      30.18F WCI  30
DRYDEN           N/A     45  38  76 NE7       30.22F
FORT STOCKTON  CLOUDY    38  36  92 E10       30.21F WCI  31
GUAD PASS      NOT AVBL
HOBBS          CLOUDY    34  34 100 SE10      30.20F WCI  26
MARFA          SUNNY     63  39  42 S8        30.15F
MIDLAND AIRPK  CLOUDY    35  35 100 E6        30.25F FOG     WCI  30
MIDLAND INTL   FOG       34  33  96 E7        30.24F VSB 1/2 WCI  28
ODESSA         FOG       34  32  92 SE8       30.25F VSB 1   WCI  27
PECOS          CLOUDY    37  35  90 E3        30.24F
PRESIDIO       FAIR      65  41  41 E12       30.10F
SEMINOLE       FOG       32  32 100 SE7       30.23F VSB 1   WCI  26
SNYDER         CLOUDY    31  30  96 NE3       30.28F FOG
WINK           CLOUDY    39  31  72 VRB6      30.23F WCI  35
$$
...OTHER STATIONS IN TEXAS...

CITY           SKY/WX    TMP DP  RH WIND       PRES   REMARKS
ABILENE        CLOUDY    32  30  92 NE5       30.30F FOG     WCI  27
AMARILLO       CLOUDY    31  27  85 S15       30.18F WCI  20
AUSTIN         CLOUDY    43  40  89 N12       30.29F WCI  37
BROWNSVILLE    CLOUDY    57  56  96 N10       30.21F FOG
CORPUS CHRISTI DRZL/FOG  51  49  92 N8        30.25F VSB 3/4
DALLAS FTW     CLOUDY    38  35  89 N5        30.32F FOG     WCI  34
DEL RIO        CLOUDY    48  41  76 N6        30.26F
EL PASO        LGT RAIN  50  40  68 S7        30.05F
HOUSTON INT    CLOUDY    56  52  86 NE5       30.25F FOG
LUBBOCK        FOG       30  29  96 SE8       30.20F VSB 1/4 WCI  22
SAN ANGELO     CLOUDY    36  34  92 NE10      30.28F WCI  28
SAN ANTONIO    CLOUDY    48  43  82 N8        30.26F
WACO           CLOUDY    39  37  92 N9        30.31F FOG     WCI  33
WICHITA FALLS  NOT AVBL
$$
...OTHER LOCATIONS IN NEW MEXICO...

CITY           SKY/WX    TMP DP  RH WIND       PRES   REMARKS
ALAMAGORDO     CLOUDY    64  34  32 S25G33    30.02F
ALBUQUERQUE    CLOUDY    50  33  52 N8        29.98F
CANNON AFB     CLOUDY    32  31  99 S8        30.14F FOG     WCI  24
CLOVIS         CLOUDY    30  28  93 S13       30.15F WCI  20
HOLLOMAN AFB   CLOUDY    65  32  29 S21G29    30.00F
ROSWELL        CLOUDY    37  33  85 S18       30.17F WCI  27
RUIDOSO        PTSUNNY   57  32  38 SW24G38   30.08F
SANTA FE       CLOUDY    43  29  57 S18G25    30.01F WCI  35
TRUTH OR CONSE CLOUDY    62  33  33 S15       30.00F
TUCUMCARI      CLOUDY    34  31  88 SW13      30.13F WCI  25
$$


USA.gov is the U.S. government's official web portal to all federal, state and local government web resources and services.